CFG9HA LGIR-EDDL

Flight info

Callsign CFG9HA
Flight time N/A
Altitude 34000
Route EPALO M749 DIRMI UL613 YNN UL604 DIMIS DCT RETRA DCT PETOV/N0446F360 DCT LAMSI L604 RODIS DCT TESDU DCT AMETU T852 TINSA T854 DOMUX DOMUX1A
Aircraft A21N/M-SBDE3FGHIJ1J4J7LORVWXYZ/SB2D1G1

Departure

Time N/A
Airport Heraklion International Nikos Kazantzakis Airport (LGIR)

Arrival

Time 2026-05-03 20:43
Airport Düsseldorf Airport (EDDL)
Time Latitude Longitude Altitude Speed Heading
2026-05-03 20:15 50.27613 10.24097 35971 ft 441 kts 301°
2026-05-03 20:15 50.31118 10.16247 35986 ft 441 kts 300°
2026-05-03 20:16 50.34610 10.08348 35981 ft 441 kts 300°
2026-05-03 20:16 50.38109 10.00443 35979 ft 442 kts 300°
2026-05-03 20:17 50.41616 9.92533 35978 ft 442 kts 300°
2026-05-03 20:17 50.45114 9.84617 35998 ft 441 kts 300°
2026-05-03 20:18 50.48597 9.76708 36015 ft 441 kts 300°
2026-05-03 20:18 50.52082 9.68776 35990 ft 441 kts 300°
2026-05-03 20:19 50.55559 9.60826 35987 ft 441 kts 300°
2026-05-03 20:19 50.59029 9.52863 35972 ft 441 kts 300°
2026-05-03 20:20 50.62491 9.44884 35976 ft 441 kts 300°
2026-05-03 20:20 50.65951 9.36901 35974 ft 441 kts 300°
2026-05-03 20:21 50.69416 9.28871 35973 ft 442 kts 299°
2026-05-03 20:21 50.72848 9.20900 35975 ft 442 kts 299°
2026-05-03 20:21 50.74573 9.16881 35731 ft 441 kts 299°
2026-05-03 20:22 50.76301 9.12847 34717 ft 447 kts 299°
2026-05-03 20:22 50.78054 9.08745 33743 ft 451 kts 299°
2026-05-03 20:22 50.79813 9.04628 32879 ft 451 kts 299°
2026-05-03 20:22 50.81564 9.00520 32101 ft 450 kts 298°
2026-05-03 20:23 50.83332 8.96437 31324 ft 452 kts 301°
2026-05-03 20:23 50.85271 8.92507 30582 ft 453 kts 303°
2026-05-03 20:23 50.87226 8.88618 29882 ft 450 kts 303°
2026-05-03 20:23 50.89171 8.84749 29128 ft 447 kts 303°
2026-05-03 20:24 50.91093 8.80921 28456 ft 441 kts 303°
2026-05-03 20:24 50.92987 8.77134 27814 ft 436 kts 303°
2026-05-03 20:24 50.94856 8.73382 27155 ft 433 kts 303°
2026-05-03 20:24 50.96717 8.69644 26507 ft 430 kts 303°
2026-05-03 20:25 50.97943 8.67181 26071 ft 428 kts 303°
2026-05-03 20:25 50.99779 8.63486 25433 ft 425 kts 303°
2026-05-03 20:25 51.01748 8.59985 24813 ft 427 kts 311°
2026-05-03 20:25 51.04097 8.57060 24165 ft 430 kts 321°
2026-05-03 20:26 51.06597 8.54455 23519 ft 428 kts 322°
2026-05-03 20:26 51.09096 8.51903 22799 ft 425 kts 322°
2026-05-03 20:26 51.11567 8.49366 22088 ft 421 kts 321°
2026-05-03 20:26 51.14015 8.46833 21406 ft 417 kts 321°
2026-05-03 20:27 51.16432 8.44321 20746 ft 413 kts 321°
2026-05-03 20:27 51.18815 8.41837 20136 ft 408 kts 321°
2026-05-03 20:27 51.21176 8.39371 19572 ft 403 kts 321°
2026-05-03 20:27 51.23508 8.36934 19009 ft 398 kts 321°
2026-05-03 20:28 51.25816 8.34519 18475 ft 395 kts 321°
2026-05-03 20:28 51.28099 8.32125 17929 ft 391 kts 321°
2026-05-03 20:28 51.30366 8.29747 17364 ft 389 kts 322°
2026-05-03 20:28 51.32619 8.27379 16829 ft 386 kts 322°
2026-05-03 20:29 51.34825 8.25060 16306 ft 382 kts 322°
2026-05-03 20:29 51.37060 8.22703 15802 ft 378 kts 322°
2026-05-03 20:29 51.39128 8.20252 15306 ft 371 kts 313°
2026-05-03 20:29 51.40726 8.17035 14806 ft 360 kts 295°
2026-05-03 20:30 51.41583 8.13401 14341 ft 351 kts 278°
2026-05-03 20:30 51.41792 8.09546 13865 ft 345 kts 268°
2026-05-03 20:30 51.41803 8.05715 13351 ft 343 kts 267°
2026-05-03 20:30 51.41814 8.01898 12833 ft 341 kts 268°
2026-05-03 20:31 51.41835 7.98123 12396 ft 338 kts 268°
2026-05-03 20:31 51.41861 7.94373 11918 ft 335 kts 268°
2026-05-03 20:31 51.41890 7.90661 11440 ft 333 kts 268°
2026-05-03 20:31 51.41920 7.86963 10994 ft 328 kts 269°
2026-05-03 20:32 51.41950 7.83386 10715 ft 314 kts 268°
2026-05-03 20:32 51.41978 7.79974 10519 ft 298 kts 268°
2026-05-03 20:32 51.42004 7.76734 10342 ft 283 kts 268°
2026-05-03 20:32 51.42026 7.73655 10125 ft 271 kts 268°
2026-05-03 20:33 51.42042 7.70676 9766 ft 265 kts 268°
2026-05-03 20:33 51.42056 7.67757 9380 ft 261 kts 268°
2026-05-03 20:33 51.42072 7.64845 8992 ft 260 kts 268°
2026-05-03 20:33 51.42094 7.61951 8628 ft 259 kts 268°
2026-05-03 20:34 51.42115 7.59076 8275 ft 257 kts 268°
2026-05-03 20:34 51.42134 7.56225 7953 ft 254 kts 268°
2026-05-03 20:34 51.42151 7.53408 7647 ft 251 kts 268°
2026-05-03 20:34 51.42167 7.50625 7332 ft 249 kts 268°
2026-05-03 20:35 51.42181 7.47843 7015 ft 254 kts 268°
2026-05-03 20:35 51.42195 7.44964 6933 ft 260 kts 268°
2026-05-03 20:35 51.42209 7.42066 6936 ft 260 kts 268°
2026-05-03 20:35 51.42222 7.39176 6945 ft 260 kts 268°
2026-05-03 20:36 51.42235 7.36281 6952 ft 260 kts 268°
2026-05-03 20:36 51.42246 7.33378 6957 ft 260 kts 268°
2026-05-03 20:36 51.42122 7.30508 6966 ft 258 kts 259°
2026-05-03 20:36 51.41809 7.27719 6958 ft 258 kts 258°
2026-05-03 20:37 51.41477 7.24890 6926 ft 257 kts 258°
2026-05-03 20:37 51.41152 7.22093 6610 ft 256 kts 258°
2026-05-03 20:37 51.40829 7.19290 6351 ft 256 kts 258°
2026-05-03 20:37 51.40508 7.16485 6081 ft 256 kts 258°
2026-05-03 20:38 51.40189 7.13683 5825 ft 255 kts 258°
2026-05-03 20:38 51.39873 7.10898 5570 ft 254 kts 258°
2026-05-03 20:38 51.39556 7.08111 5310 ft 253 kts 258°
2026-05-03 20:38 51.39242 7.05342 5060 ft 253 kts 258°
2026-05-03 20:39 51.39002 7.02544 4871 ft 254 kts 263°
2026-05-03 20:39 51.38825 6.99768 4574 ft 248 kts 259°
2026-05-03 20:39 51.38332 6.97148 4116 ft 242 kts 244°
2026-05-03 20:39 51.37472 6.94860 3503 ft 238 kts 233°
2026-05-03 20:40 51.36458 6.92848 3124 ft 224 kts 231°
2026-05-03 20:40 51.35485 6.90987 2523 ft 220 kts 231°
2026-05-03 20:40 51.34577 6.89127 2237 ft 189 kts 233°
2026-05-03 20:40 51.33896 6.87690 1992 ft 150 kts 233°
2026-05-03 20:41 51.33314 6.86410 1629 ft 135 kts 232°
2026-05-03 20:41 51.32773 6.85303 1380 ft 124 kts 231°
2026-05-03 20:41 51.32253 6.84189 1081 ft 126 kts 231°
2026-05-03 20:41 51.31714 6.83064 850 ft 129 kts 231°
2026-05-03 20:42 51.31167 6.81912 648 ft 131 kts 231°
2026-05-03 20:42 51.30617 6.80766 504 ft 130 kts 230°
2026-05-03 20:42 51.30057 6.79617 337 ft 131 kts 231°
2026-05-03 20:42 51.29509 6.78450 181 ft 131 kts 231°
2026-05-03 20:43 51.28996 6.77379 134 ft 102 kts 232°
2026-05-03 20:43 51.28675 6.76700 134 ft 52 kts 232°
2026-05-03 20:43 51.28534 6.76401 134 ft 27 kts 233°
2026-05-03 20:43 51.28422 6.76162 135 ft 21 kts 233°
2026-05-03 20:44 51.28301 6.76031 134 ft 22 kts 206°
2026-05-03 20:44 51.28181 6.75938 133 ft 19 kts 205°
2026-05-03 20:44 51.28081 6.75865 134 ft 12 kts 205°
2026-05-03 20:44 51.28034 6.75832 135 ft 8 kts 196°
2026-05-03 20:45 51.27975 6.75821 134 ft 9 kts 182°
2026-05-03 20:45 51.27920 6.75821 134 ft 0 kts 153°
2026-05-03 20:45 51.27914 6.75821 134 ft 2 kts 178°
2026-05-03 20:45 51.27889 6.75821 134 ft 5 kts 181°
2026-05-03 20:46 51.27852 6.75848 134 ft 8 kts 123°
2026-05-03 20:46 51.27842 6.75942 134 ft 10 kts 88°
2026-05-03 20:46 51.27842 6.76066 134 ft 12 kts 91°
2026-05-03 20:46 51.27840 6.76199 134 ft 5 kts 91°
2026-05-03 20:47 51.27847 6.76258 134 ft 5 kts 54°
2026-05-03 20:47 51.27874 6.76306 134 ft 3 kts 50°
2026-05-03 20:47 51.27883 6.76323 134 ft 0 kts 50°
2026-05-03 20:47 51.27884 6.76326 134 ft 0 kts 50°